Flag for Canada Weather past 2 weeks in Charlottetown, Pr.Edward I, Canada

Now
28 °F

Overcast.


Feels Like: 22 °F
Forecast: 28 / 32 °F
Wind: 6 mph from Northeast

Location: Charlottetown

Current Time: Dec 21, 2014 at 12:03:18 PM

Latest Report: Dec 21, 2014 at 11:00 AM


Visibility: 15 mi

Pressure: 30.41 "Hg

Humidity: 80%

Dew point: 23 °F

Location of CharlottetownLocation

Historic Weather in Charlottetown — Graph

°F

Charlottetown temperature yesterday

Maximum temperature yesterday: 32 °F (at 6:00 AM)
Minimum temperature yesterday: 28 °F (at 12:00 AM)
Average temperature yesterday: 31 °F

Past Weeks' High & Low Weather Summary

 TemperatureHumidityPressure
High50 °F (Dec 11, 1:00 PM)100% (Dec 6, 6:00 PM)30.84 "Hg (Dec 6, 6:00 PM)
Low5 °F (Dec 8, 8:00 PM)62% (Dec 7, 7:00 PM)29.34 "Hg (Dec 18, 12:00 PM)
Average33 °F89%30.01 "Hg
* Reported Dec 6 10:00 AM — Dec 21 10:00 AM, Charlottetown, Weather by CustomWeather, © 2014

Note: Actual official high and low records may vary slightly from our data, if they occured in-between our weather recording intervals... More about our weather records

Advertising

Charlottetown weather history for previous 24 hours

 ConditionsComfort  
Time TempWeatherWind HumidityBarometerVisibility
10:00 AM
Dec 21
28 °FOvercast.6 mph80%30.41 "Hg15 mi
9:00 AM28 °FOvercast.3 mph80%30.40 "Hg15 mi
8:00 AM28 °FOvercast.5 mph74%30.39 "Hg15 mi
7:00 AM28 °FOvercast.6 mph74%30.38 "Hg15 mi
6:00 AM28 °FOvercast.3 mph80%30.37 "Hg15 mi
5:00 AM28 °FOvercast.3 mph80%30.36 "Hg15 mi
4:00 AM30 °FOvercast.7 mph75%30.36 "Hg15 mi
3:00 AM30 °FOvercast.7 mph75%30.36 "Hg15 mi
2:00 AM30 °FOvercast.8 mph75%30.34 "Hg15 mi
1:00 AM30 °FOvercast.6 mph75%30.33 "Hg15 mi
12:00 AM30 °FOvercast.8 mph75%30.34 "Hg15 mi
11:00 PM
Dec 20
30 °FOvercast.7 mph75%30.34 "Hg15 mi
10:00 PM30 °FOvercast.6 mph75%30.34 "Hg15 mi
9:00 PM30 °FOvercast.7 mph80%30.34 "Hg15 mi
8:00 PM30 °FSnow flurries. Overcast.10 mph75%30.34 "Hg15 mi
7:00 PM30 °FSnow flurries. Overcast.9 mph80%30.33 "Hg15 mi
6:00 PM30 °FSnow flurries. Overcast.8 mph75%30.32 "Hg15 mi
5:00 PM30 °FOvercast.9 mph75%30.31 "Hg15 mi
4:00 PM32 °FOvercast.12 mph75%30.29 "Hg15 mi
3:00 PM32 °FOvercast.8 mph75%30.27 "Hg15 mi
2:00 PM32 °FOvercast.8 mph75%30.26 "Hg15 mi
1:00 PM32 °FOvercast.15 mph75%30.25 "Hg15 mi
12:00 PM32 °FOvercast.13 mph75%30.25 "Hg12 mi
Weather by CustomWeather, © 2014

See weather overviewHow to use our weather pages